| time (UTC) | temp F | wind direction | speed MPH | gust MPH | rain 1hr in | rain 24hr in | rain mn in | humidity % | barometer mb |
| 20260902130611 | 58 | 170 | 3.0 | 14.0 | 0.00 | 0.01 | 0.00 | 85 | 1006.7 |
| 20260902130059 | 58 | 147 | 4.0 | 13.0 | 0.00 | 0.01 | 0.00 | 85 | 1006.8 |
| 20260902125546 | 58 | 149 | 2.0 | 13.0 | 0.00 | 0.01 | 0.00 | 85 | 1006.7 |
| 20260902124519 | 58 | 0 | 0.0 | 0.0 | 0.00 | 0.01 | 0.00 | 85 | 1007.1 |
| 20260902123453 | 57 | 187 | 1.0 | 12.0 | 0.00 | 0.01 | 0.00 | 85 | 1007.3 |
| 20260902122940 | 58 | 319 | 0.0 | 12.0 | 0.00 | 0.01 | 0.00 | 85 | 1007.3 |
| 20260902122427 | 57 | 72 | 0.0 | 10.0 | 0.00 | 0.01 | 0.00 | 85 | 1007.4 |
| 20260902121914 | 58 | 141 | 0.0 | 10.0 | 0.00 | 0.01 | 0.00 | 84 | 1007.6 |
| 20260902121402 | 58 | 154 | 0.0 | 8.0 | 0.00 | 0.01 | 0.00 | 84 | 1007.7 |
| 20260902120848 | 58 | 158 | 0.0 | 14.0 | 0.00 | 0.01 | 0.00 | 83 | 1007.8 |
| 20260902120335 | 58 | 274 | 1.0 | 14.0 | 0.00 | 0.01 | 0.00 | 82 | 1007.9 |
| 20260902115822 | 59 | 187 | 4.0 | 14.0 | 0.00 | 0.02 | 0.00 | 81 | 1007.8 |
| 20260902115310 | 59 | 177 | 1.0 | 9.0 | 0.00 | 0.02 | 0.00 | 81 | 1007.9 |
| 20260902114756 | 60 | 249 | 0.0 | 20.0 | 0.00 | 0.02 | 0.00 | 80 | 1007.8 |
| 20260902114243 | 61 | 183 | 7.0 | 20.0 | 0.00 | 0.02 | 0.00 | 78 | 1008.0 |
| 20260902113217 | 62 | 172 | 5.0 | 18.0 | 0.00 | 0.02 | 0.00 | 78 | 1007.9 |
| 20260902112704 | 61 | 226 | 5.0 | 18.0 | 0.00 | 0.02 | 0.00 | 79 | 1008.0 |
| 20260902111638 | 61 | 261 | 1.0 | 14.0 | 0.00 | 0.02 | 0.00 | 79 | 1008.0 |
| 20260902111125 | 61 | 187 | 3.0 | 14.0 | 0.00 | 0.02 | 0.00 | 79 | 1008.1 |
| 20260902110612 | 61 | 184 | 3.0 | 8.0 | 0.00 | 0.02 | 0.00 | 79 | 1008.0 |
| 20260902110149 | 62 | 187 | 2.0 | 14.0 | 0.00 | 0.02 | 0.00 | 79 | 1008.2 |
| 20260902110059 | 62 | 187 | 2.0 | 14.0 | 0.00 | 0.02 | 0.00 | 79 | 1008.2 |
| 20260902105546 | 62 | 249 | 0.0 | 14.0 | 0.00 | 0.02 | 0.00 | 79 | 1008.2 |
| 20260902105033 | 62 | 250 | 2.0 | 14.0 | 0.00 | 0.02 | 0.00 | 79 | 1008.3 |
| 20260902104520 | 62 | 112 | 1.0 | 10.0 | 0.00 | 0.02 | 0.00 | 79 | 1008.3 |
| 20260902104007 | 61 | 284 | 4.0 | 17.0 | 0.00 | 0.02 | 0.00 | 80 | 1008.5 |
| 20260902103454 | 61 | 274 | 4.0 | 17.0 | 0.00 | 0.02 | 0.00 | 80 | 1008.6 |
| 20260902102941 | 61 | 268 | 4.0 | 17.0 | 0.00 | 0.02 | 0.00 | 80 | 1008.7 |
| 20260902102430 | 61 | 175 | 5.0 | 13.0 | 0.00 | 0.02 | 0.00 | 81 | 1008.6 |
| 20260902101402 | 61 | 281 | 0.0 | 16.0 | 0.00 | 0.02 | 0.00 | 82 | 1008.9 |
| 20260902100849 | 61 | 72 | 8.0 | 16.0 | 0.00 | 0.02 | 0.00 | 82 | 1008.9 |
| 20260902100336 | 61 | 236 | 4.0 | 16.0 | 0.00 | 0.02 | 0.00 | 83 | 1008.9 |
| 20260902095823 | 60 | 207 | 6.0 | 11.0 | 0.00 | 0.02 | 0.00 | 84 | 1008.9 |
| 20260902095310 | 60 | 235 | 1.0 | 14.0 | 0.00 | 0.02 | 0.00 | 84 | 1009.0 |
| 20260902094757 | 60 | 170 | 3.0 | 14.0 | 0.00 | 0.02 | 0.00 | 85 | 1009.1 |
| 20260902094244 | 59 | 180 | 0.0 | 14.0 | 0.00 | 0.02 | 0.00 | 86 | 1009.1 |
| 20260902093731 | 59 | 173 | 1.0 | 9.0 | 0.00 | 0.02 | 0.00 | 86 | 1009.2 |
| 20260902093218 | 58 | 179 | 2.0 | 9.0 | 0.00 | 0.02 | 0.00 | 87 | 1009.3 |
| 20260902092705 | 58 | 217 | 1.0 | 13.0 | 0.00 | 0.02 | 0.00 | 87 | 1009.4 |
| 20260902091639 | 58 | 246 | 2.0 | 13.0 | 0.00 | 0.02 | 0.00 | 87 | 1009.6 |
| 20260902091126 | 58 | 277 | 1.0 | 11.0 | 0.00 | 0.02 | 0.00 | 87 | 1009.7 |
| 20260902090613 | 58 | 0 | 0.0 | 10.0 | 0.00 | 0.02 | 0.00 | 88 | 1009.8 |
| 20260902085547 | 58 | 326 | 2.0 | 9.0 | 0.00 | 0.02 | 0.00 | 88 | 1009.9 |
| 20260902085034 | 58 | 151 | 1.0 | 16.0 | 0.00 | 0.02 | 0.00 | 88 | 1010.0 |
| 20260902084521 | 58 | 221 | 1.0 | 16.0 | 0.00 | 0.02 | 0.00 | 88 | 1010.1 |
| 20260902084008 | 58 | 142 | 5.0 | 16.0 | 0.00 | 0.02 | 0.00 | 88 | 1010.3 |
| 20260902083455 | 58 | 240 | 4.0 | 15.0 | 0.00 | 0.02 | 0.00 | 88 | 1010.2 |
| 20260902082429 | 58 | 266 | 2.0 | 15.0 | 0.00 | 0.02 | 0.00 | 88 | 1010.4 |
| 20260902081403 | 58 | 161 | 2.0 | 16.0 | 0.00 | 0.02 | 0.00 | 88 | 1010.5 |
| 20260902080850 | 58 | 291 | 0.0 | 16.0 | 0.00 | 0.02 | 0.00 | 87 | 1010.5 |
| 20260902080337 | 58 | 203 | 5.0 | 16.0 | 0.00 | 0.02 | 0.00 | 87 | 1010.7 |
| 20260902075311 | 58 | 282 | 5.0 | 15.0 | 0.00 | 0.02 | 0.02 | 87 | 1010.5 |
| 20260902074758 | 58 | 282 | 2.0 | 11.0 | 0.00 | 0.02 | 0.02 | 87 | 1010.6 |
| 20260902074245 | 58 | 210 | 3.0 | 20.0 | 0.00 | 0.02 | 0.02 | 87 | 1010.6 |
| 20260902073732 | 59 | 196 | 5.0 | 20.0 | 0.00 | 0.02 | 0.02 | 86 | 1010.7 |
| 20260902073219 | 58 | 135 | 8.0 | 20.0 | 0.00 | 0.02 | 0.02 | 86 | 1010.7 |
| 20260902072706 | 59 | 245 | 5.0 | 12.0 | 0.00 | 0.02 | 0.02 | 86 | 1010.7 |
| 20260902072153 | 59 | 232 | 0.0 | 12.0 | 0.00 | 0.02 | 0.02 | 86 | 1010.7 |
| 20260902071640 | 59 | 135 | 3.0 | 8.0 | 0.00 | 0.02 | 0.02 | 86 | 1010.7 |
| 20260902071127 | 59 | 219 | 1.0 | 18.0 | 0.00 | 0.02 | 0.02 | 86 | 1010.7 |
| 20260902070614 | 58 | 158 | 2.0 | 18.0 | 0.00 | 0.02 | 0.02 | 86 | 1010.6 |
| 20260902070101 | 59 | 187 | 3.0 | 18.0 | 0.00 | 0.02 | 0.02 | 86 | 1010.7 |
| 20260902064522 | 59 | 257 | 5.0 | 11.0 | 0.00 | 0.02 | 0.02 | 87 | 1010.8 |
| 20260902064009 | 59 | 271 | 3.0 | 11.0 | 0.00 | 0.02 | 0.02 | 87 | 1010.8 |
| 20260902063456 | 59 | 222 | 0.0 | 8.0 | 0.00 | 0.02 | 0.02 | 87 | 1010.8 |
| 20260902062430 | 59 | 259 | 0.0 | 16.0 | 0.00 | 0.02 | 0.02 | 86 | 1010.9 |
| 20260902061917 | 59 | 219 | 5.0 | 16.0 | 0.00 | 0.02 | 0.02 | 86 | 1011.0 |
| 20260902061404 | 59 | 259 | 4.0 | 10.0 | 0.00 | 0.02 | 0.02 | 86 | 1011.1 |
| 20260902060851 | 60 | 305 | 4.0 | 10.0 | 0.00 | 0.02 | 0.02 | 85 | 1011.1 |
| 20260902060338 | 60 | 152 | 2.0 | 16.0 | 0.00 | 0.02 | 0.02 | 85 | 1011.1 |
| 20260902055825 | 60 | 264 | 7.0 | 16.0 | 0.00 | 0.02 | 0.02 | 86 | 1011.2 |
| 20260902055312 | 60 | 280 | 0.0 | 16.0 | 0.00 | 0.02 | 0.02 | 86 | 1011.2 |
| 20260902054759 | 60 | 151 | 3.0 | 10.0 | 0.00 | 0.02 | 0.02 | 86 | 1011.2 |
| 20260902054246 | 60 | 225 | 3.0 | 9.0 | 0.00 | 0.02 | 0.02 | 86 | 1011.2 |
| 20260902053733 | 59 | 138 | 1.0 | 12.0 | 0.00 | 0.02 | 0.02 | 86 | 1011.3 |
| 20260902053220 | 60 | 205 | 0.0 | 12.0 | 0.00 | 0.02 | 0.02 | 86 | 1011.4 |
| 20260902052707 | 60 | 280 | 4.0 | 12.0 | 0.00 | 0.02 | 0.02 | 86 | 1011.4 |
| 20260902052154 | 60 | 182 | 6.0 | 12.0 | 0.00 | 0.02 | 0.02 | 86 | 1011.5 |
| 20260902051641 | 60 | 224 | 0.0 | 12.0 | 0.00 | 0.02 | 0.02 | 86 | 1011.5 |
| 20260902051128 | 59 | 210 | 0.0 | 10.0 | 0.00 | 0.02 | 0.02 | 87 | 1011.5 |
| 20260902050615 | 59 | 193 | 3.0 | 7.0 | 0.00 | 0.02 | 0.02 | 87 | 1011.4 |
| 20260902045549 | 60 | 0 | 0.0 | 14.0 | 0.00 | 0.02 | 0.02 | 87 | 1011.5 |
| 20260902045036 | 60 | 238 | 4.0 | 14.0 | 0.00 | 0.02 | 0.02 | 87 | 1011.6 |
| 20260902044523 | 59 | 0 | 0.0 | 10.0 | 0.00 | 0.02 | 0.02 | 87 | 1011.7 |
| 20260902044010 | 59 | 205 | 7.0 | 13.0 | 0.00 | 0.02 | 0.02 | 87 | 1011.7 |
| 20260902043456 | 60 | 235 | 1.0 | 13.0 | 0.00 | 0.02 | 0.02 | 87 | 1011.8 |
| 20260902042943 | 60 | 239 | 2.0 | 13.0 | 0.00 | 0.02 | 0.02 | 87 | 1011.7 |
| 20260902042430 | 60 | 169 | 1.0 | 11.0 | 0.00 | 0.02 | 0.02 | 87 | 1011.7 |
| 20260902041917 | 59 | 179 | 2.0 | 11.0 | 0.00 | 0.02 | 0.02 | 88 | 1011.7 |
| 20260902041404 | 59 | 232 | 3.0 | 9.0 | 0.00 | 0.02 | 0.02 | 88 | 1011.7 |
| 20260902040851 | 59 | 149 | 1.0 | 9.0 | 0.00 | 0.02 | 0.02 | 88 | 1011.6 |
| 20260902035312 | 59 | 198 | 3.0 | 15.0 | 0.00 | 0.02 | 0.02 | 89 | 1011.6 |
| 20260902034759 | 58 | 163 | 3.0 | 11.0 | 0.00 | 0.02 | 0.02 | 89 | 1011.7 |
| 20260902034246 | 59 | 112 | 3.0 | 11.0 | 0.00 | 0.02 | 0.02 | 89 | 1011.6 |
| 20260902033733 | 59 | 159 | 1.0 | 15.0 | 0.00 | 0.02 | 0.02 | 89 | 1011.7 |
| 20260902033221 | 59 | 263 | 3.0 | 15.0 | 0.00 | 0.02 | 0.02 | 89 | 1011.6 |
| 20260902032707 | 59 | 221 | 6.0 | 15.0 | 0.00 | 0.02 | 0.02 | 89 | 1011.7 |
| 20260902032154 | 59 | 239 | 0.0 | 14.0 | 0.00 | 0.02 | 0.02 | 89 | 1011.6 |
| 20260902031641 | 59 | 239 | 1.0 | 18.0 | 0.00 | 0.02 | 0.02 | 89 | 1011.6 |
| 20260902031128 | 59 | 296 | 8.0 | 18.0 | 0.00 | 0.02 | 0.02 | 89 | 1011.6 |
| 20260902030615 | 58 | 273 | 0.0 | 18.0 | 0.00 | 0.02 | 0.02 | 89 | 1011.6 |
| 20260902025549 | 59 | 221 | 7.0 | 16.0 | 0.00 | 0.02 | 0.02 | 89 | 1011.6 |
| 20260902024524 | 59 | 317 | 5.0 | 16.0 | 0.00 | 0.02 | 0.02 | 89 | 1011.7 |
| 20260902024010 | 59 | 134 | 7.0 | 16.0 | 0.00 | 0.02 | 0.02 | 89 | 1011.7 |
| 20260902023457 | 59 | 183 | 3.0 | 14.0 | 0.00 | 0.02 | 0.02 | 89 | 1011.7 |
| 20260902022945 | 59 | 282 | 0.0 | 14.0 | 0.00 | 0.02 | 0.02 | 89 | 1011.7 |
| 20260902022432 | 59 | 173 | 4.0 | 14.0 | 0.00 | 0.02 | 0.02 | 89 | 1011.7 |
| 20260902021919 | 59 | 253 | 3.0 | 12.0 | 0.00 | 0.02 | 0.02 | 88 | 1011.6 |
| 20260902021406 | 60 | 107 | 0.0 | 12.0 | 0.00 | 0.02 | 0.02 | 88 | 1011.6 |
| 20260902020853 | 60 | 267 | 5.0 | 12.0 | 0.00 | 0.02 | 0.02 | 88 | 1011.7 |
| 20260902020340 | 61 | 180 | 2.0 | 11.0 | 0.00 | 0.02 | 0.02 | 88 | 1011.6 |
| 20260902015314 | 61 | 274 | 0.0 | 5.0 | 0.00 | 0.02 | 0.02 | 88 | 1011.4 |
| 20260902014801 | 61 | 170 | 0.0 | 15.0 | 0.00 | 0.02 | 0.02 | 88 | 1011.3 |
| 20260902014248 | 61 | 280 | 0.0 | 15.0 | 0.00 | 0.02 | 0.02 | 88 | 1011.3 |
| 20260902013737 | 62 | 273 | 3.0 | 15.0 | 0.00 | 0.02 | 0.02 | 88 | 1011.2 |
| 20260902013222 | 62 | 190 | 2.0 | 9.0 | 0.00 | 0.02 | 0.02 | 88 | 1011.3 |
| 20260902012709 | 62 | 190 | 0.0 | 13.0 | 0.00 | 0.02 | 0.02 | 89 | 1011.2 |
| 20260902011643 | 61 | 225 | 5.0 | 13.0 | 0.00 | 0.02 | 0.02 | 89 | 1011.3 |
| 20260902011130 | 61 | 274 | 5.0 | 8.0 | 0.00 | 0.02 | 0.02 | 89 | 1011.4 |
| 20260902010617 | 61 | 298 | 5.0 | 12.0 | 0.00 | 0.02 | 0.02 | 89 | 1011.4 |
| 20260902005551 | 60 | 348 | 1.0 | 12.0 | 0.00 | 0.02 | 0.02 | 89 | 1011.4 |
| 20260902005038 | 61 | 0 | 0.0 | 15.0 | 0.00 | 0.02 | 0.02 | 89 | 1011.4 |
| 20260902004525 | 60 | 296 | 2.0 | 15.0 | 0.00 | 0.02 | 0.02 | 89 | 1011.4 |
| 20260902004012 | 61 | 259 | 5.0 | 15.0 | 0.00 | 0.02 | 0.02 | 89 | 1011.4 |
| 20260902003459 | 61 | 0 | 3.0 | 12.0 | 0.00 | 0.02 | 0.02 | 89 | 1011.4 |
| 20260902002946 | 61 | 252 | 3.0 | 11.0 | 0.00 | 0.02 | 0.02 | 89 | 1011.5 |
| 20260902001920 | 60 | 285 | 0.0 | 11.0 | 0.00 | 0.02 | 0.02 | 89 | 1011.5 |
| 20260902001407 | 61 | 256 | 6.0 | 11.0 | 0.00 | 0.02 | 0.02 | 89 | 1011.6 |
| 20260902000854 | 61 | 233 | 0.0 | 11.0 | 0.00 | 0.02 | 0.02 | 89 | 1011.5 |
| 20260902000341 | 61 | 260 | 1.0 | 11.0 | 0.00 | 0.02 | 0.02 | 89 | 1011.6 |
| 20260901235315 | 60 | 306 | 3.0 | 8.0 | 0.00 | 0.02 | 0.02 | 89 | 1011.8 |
| 20260901234802 | 60 | 267 | 1.0 | 6.0 | 0.00 | 0.02 | 0.02 | 89 | 1011.8 |
| 20260901234249 | 60 | 280 | 4.0 | 11.0 | 0.00 | 0.02 | 0.02 | 88 | 1011.8 |
| 20260901233223 | 61 | 253 | 2.0 | 11.0 | 0.00 | 0.02 | 0.02 | 89 | 1011.9 |
| 20260901232710 | 61 | 271 | 0.0 | 10.0 | 0.00 | 0.02 | 0.02 | 89 | 1012.0 |
| 20260901232157 | 60 | 261 | 0.0 | 10.0 | 0.00 | 0.02 | 0.02 | 89 | 1011.9 |
| 20260901231644 | 60 | 250 | 3.0 | 9.0 | 0.00 | 0.02 | 0.02 | 88 | 1012.0 |
| 20260901231130 | 60 | 0 | 0.0 | 13.0 | 0.00 | 0.02 | 0.02 | 89 | 1012.0 |
| 20260901230618 | 60 | 134 | 2.0 | 13.0 | 0.00 | 0.02 | 0.02 | 88 | 1012.1 |
| 20260901230106 | 61 | 232 | 2.0 | 13.0 | 0.00 | 0.02 | 0.02 | 88 | 1012.1 |
| 20260901225552 | 60 | 196 | 0.0 | 10.0 | 0.00 | 0.02 | 0.02 | 88 | 1012.1 |
| 20260901225038 | 61 | 0 | 0.0 | 10.0 | 0.00 | 0.02 | 0.02 | 89 | 1012.2 |
| 20260901224525 | 61 | 0 | 3.0 | 12.0 | 0.00 | 0.02 | 0.02 | 88 | 1012.2 |
| 20260901224012 | 61 | 301 | 0.0 | 12.0 | 0.00 | 0.02 | 0.02 | 88 | 1012.2 |
| 20260901223459 | 61 | 0 | 1.0 | 12.0 | 0.00 | 0.02 | 0.02 | 88 | 1012.1 |
| 20260901222947 | 61 | 222 | 3.0 | 11.0 | 0.00 | 0.02 | 0.02 | 88 | 1012.1 |
| 20260901222433 | 61 | 273 | 2.0 | 11.0 | 0.00 | 0.02 | 0.02 | 87 | 1012.1 |
| 20260901221920 | 62 | 250 | 3.0 | 8.0 | 0.00 | 0.02 | 0.02 | 87 | 1012.2 |
| 20260901221408 | 62 | 294 | 5.0 | 12.0 | 0.00 | 0.02 | 0.02 | 87 | 1012.1 |
| 20260901220854 | 62 | 249 | 4.0 | 12.0 | 0.00 | 0.02 | 0.02 | 87 | 1012.1 |
| 20260901215828 | 62 | 177 | 4.0 | 11.0 | 0.00 | 0.02 | 0.02 | 87 | 1012.1 |
| 20260901214802 | 62 | 322 | 0.0 | 11.0 | 0.00 | 0.02 | 0.02 | 88 | 1012.0 |
| 20260901214249 | 62 | 217 | 6.0 | 11.0 | 0.00 | 0.02 | 0.02 | 87 | 1012.0 |
| 20260901213736 | 62 | 260 | 2.0 | 11.0 | 0.00 | 0.02 | 0.02 | 88 | 1012.0 |
| 20260901213223 | 62 | 242 | 0.0 | 13.0 | 0.00 | 0.02 | 0.02 | 88 | 1011.9 |
| 20260901212710 | 62 | 263 | 5.0 | 13.0 | 0.00 | 0.02 | 0.02 | 88 | 1011.9 |
| 20260901212157 | 62 | 250 | 6.0 | 13.0 | 0.00 | 0.02 | 0.02 | 88 | 1011.9 |
| 20260901211644 | 62 | 309 | 4.0 | 12.0 | 0.00 | 0.02 | 0.02 | 88 | 1011.8 |
| 20260901211131 | 63 | 190 | 3.0 | 12.0 | 0.00 | 0.02 | 0.02 | 88 | 1011.9 |
| 20260901210618 | 62 | 266 | 1.0 | 11.0 | 0.00 | 0.02 | 0.02 | 88 | 1011.9 |
| 20260901210105 | 62 | 257 | 4.0 | 11.0 | 0.00 | 0.02 | 0.02 | 88 | 1011.9 |
| 20260901205039 | 62 | 256 | 4.0 | 7.0 | 0.00 | 0.02 | 0.02 | 88 | 1011.8 |
| 20260901204526 | 62 | 0 | 0.0 | 7.0 | 0.00 | 0.02 | 0.02 | 89 | 1011.8 |
| 20260901204013 | 62 | 266 | 6.0 | 11.0 | 0.00 | 0.02 | 0.02 | 88 | 1011.9 |
| 20260901203500 | 61 | 253 | 1.0 | 11.0 | 0.00 | 0.02 | 0.02 | 89 | 1012.0 |
| 20260901202947 | 61 | 208 | 2.0 | 11.0 | 0.00 | 0.02 | 0.02 | 89 | 1012.0 |
| 20260901202434 | 61 | 270 | 0.0 | 10.0 | 0.00 | 0.02 | 0.02 | 89 | 1012.0 |
| 20260901201921 | 60 | 271 | 4.0 | 11.0 | 0.00 | 0.02 | 0.02 | 89 | 1012.0 |
| 20260901201408 | 61 | 263 | 6.0 | 11.0 | 0.00 | 0.02 | 0.02 | 89 | 1012.0 |
| 20260901200855 | 62 | 268 | 1.0 | 11.0 | 0.00 | 0.02 | 0.02 | 89 | 1011.9 |
| 20260901200342 | 61 | 254 | 3.0 | 11.0 | 0.00 | 0.02 | 0.02 | 90 | 1012.0 |
| 20260901195830 | 61 | 282 | 5.0 | 11.0 | 0.00 | 0.02 | 0.02 | 90 | 1011.9 |
| 20260901195316 | 60 | 268 | 4.0 | 11.0 | 0.00 | 0.02 | 0.02 | 91 | 1011.9 |
| 20260901194804 | 59 | 159 | 2.0 | 11.0 | 0.01 | 0.02 | 0.02 | 91 | 1012.0 |
| 20260901194250 | 60 | 190 | 1.0 | 11.0 | 0.01 | 0.02 | 0.02 | 91 | 1012.0 |
| 20260901193737 | 60 | 246 | 0.0 | 11.0 | 0.01 | 0.02 | 0.02 | 91 | 1012.1 |
| 20260901192711 | 60 | 247 | 1.0 | 8.0 | 0.01 | 0.02 | 0.02 | 91 | 1012.1 |
| 20260901192158 | 59 | 246 | 3.0 | 5.0 | 0.01 | 0.02 | 0.02 | 91 | 1012.2 |
| 20260901191645 | 59 | 0 | 0.0 | 10.0 | 0.01 | 0.02 | 0.02 | 91 | 1012.2 |
| 20260901190619 | 59 | 281 | 4.0 | 8.0 | 0.01 | 0.02 | 0.02 | 92 | 1012.2 |
| 20260901190106 | 59 | 285 | 2.0 | 6.0 | 0.01 | 0.02 | 0.02 | 91 | 1012.2 |
| 20260901185040 | 59 | 246 | 7.0 | 11.0 | 0.01 | 0.02 | 0.02 | 92 | 1012.3 |
| 20260901184527 | 59 | 273 | 5.0 | 11.0 | 0.00 | 0.02 | 0.02 | 92 | 1012.2 |
| 20260901184014 | 58 | 0 | 3.0 | 9.0 | 0.00 | 0.01 | 0.01 | 92 | 1012.3 |
| 20260901183501 | 58 | 0 | 1.0 | 9.0 | 0.00 | 0.01 | 0.01 | 92 | 1012.3 |
| 20260901182949 | 58 | 249 | 2.0 | 9.0 | 0.00 | 0.01 | 0.01 | 92 | 1012.3 |
| 20260901182435 | 59 | 250 | 1.0 | 9.0 | 0.00 | 0.01 | 0.01 | 92 | 1012.3 |
| 20260901181922 | 59 | 229 | 4.0 | 7.0 | 0.00 | 0.01 | 0.01 | 92 | 1012.3 |
| 20260901181409 | 59 | 275 | 4.0 | 8.0 | 0.00 | 0.01 | 0.01 | 92 | 1012.2 |
| 20260901180856 | 60 | 259 | 0.0 | 8.0 | 0.00 | 0.01 | 0.01 | 92 | 1012.2 |
| 20260901180343 | 60 | 299 | 5.0 | 8.0 | 0.00 | 0.01 | 0.01 | 92 | 1012.2 |
| 20260901175830 | 60 | 284 | 4.0 | 8.0 | 0.00 | 0.01 | 0.01 | 92 | 1012.1 |
| 20260901175317 | 60 | 291 | 3.0 | 8.0 | 0.00 | 0.01 | 0.01 | 92 | 1012.1 |
| 20260901174804 | 59 | 291 | 4.0 | 8.0 | 0.00 | 0.01 | 0.01 | 92 | 1012.1 |
| 20260901174251 | 60 | 240 | 0.0 | 8.0 | 0.00 | 0.01 | 0.01 | 93 | 1012.2 |
| 20260901173738 | 59 | 263 | 1.0 | 7.0 | 0.00 | 0.01 | 0.01 | 93 | 1012.2 |
| 20260901173225 | 59 | 263 | 0.0 | 5.0 | 0.00 | 0.01 | 0.01 | 93 | 1012.2 |
| 20260901172712 | 59 | 317 | 1.0 | 5.0 | 0.00 | 0.01 | 0.01 | 93 | 1012.3 |
| 20260901172159 | 60 | 257 | 1.0 | 5.0 | 0.00 | 0.01 | 0.01 | 93 | 1012.2 |
| 20260901171646 | 59 | 0 | 0.0 | 3.0 | 0.00 | 0.01 | 0.01 | 93 | 1012.2 |
| 20260901171133 | 59 | 0 | 0.0 | 0.0 | 0.00 | 0.01 | 0.01 | 93 | 1012.2 |
| 20260901170620 | 58 | 0 | 0.0 | 0.0 | 0.00 | 0.01 | 0.01 | 93 | 1012.2 |
| 20260901170107 | 58 | 0 | 0.0 | 0.0 | 0.00 | 0.01 | 0.01 | 94 | 1012.3 |
| 20260901165555 | 57 | 0 | 0.0 | 0.0 | 0.00 | 0.01 | 0.01 | 94 | 1012.2 |
| 20260901165041 | 57 | 0 | 0.0 | 0.0 | 0.00 | 0.01 | 0.01 | 94 | 1012.2 |
| 20260901164528 | 57 | 0 | 0.0 | 0.0 | 0.00 | 0.01 | 0.01 | 94 | 1012.2 |
| 20260901164015 | 57 | 0 | 0.0 | 0.0 | 0.00 | 0.01 | 0.01 | 94 | 1012.2 |
| 20260901163502 | 57 | 0 | 0.0 | 4.0 | 0.00 | 0.01 | 0.01 | 94 | 1012.3 |
| 20260901162949 | 57 | 0 | 0.0 | 4.0 | 0.00 | 0.01 | 0.01 | 94 | 1012.3 |
| 20260901162436 | 57 | 231 | 0.0 | 4.0 | 0.00 | 0.01 | 0.01 | 94 | 1012.3 |
| 20260901161923 | 57 | 0 | 0.0 | 0.0 | 0.00 | 0.01 | 0.01 | 94 | 1012.3 |
| 20260901161410 | 57 | 0 | 0.0 | 0.0 | 0.00 | 0.01 | 0.01 | 94 | 1012.3 |
| 20260901160857 | 57 | 0 | 0.0 | 0.0 | 0.00 | 0.01 | 0.01 | 94 | 1012.4 |
| 20260901160344 | 57 | 0 | 0.0 | 0.0 | 0.00 | 0.01 | 0.01 | 94 | 1012.3 |
| 20260901155831 | 57 | 0 | 0.0 | 0.0 | 0.00 | 0.01 | 0.01 | 94 | 1012.3 |
| 20260901155317 | 56 | 0 | 0.0 | 4.0 | 0.00 | 0.01 | 0.01 | 94 | 1012.3 |
| 20260901154805 | 57 | 0 | 0.0 | 4.0 | 0.00 | 0.01 | 0.01 | 94 | 1012.4 |
| 20260901154252 | 56 | 254 | 0.0 | 4.0 | 0.00 | 0.01 | 0.01 | 94 | 1012.4 |
| 20260901153225 | 56 | 189 | 0.0 | 3.0 | 0.00 | 0.01 | 0.01 | 94 | 1012.3 |
| 20260901152712 | 56 | 0 | 0.0 | 0.0 | 0.00 | 0.01 | 0.01 | 94 | 1012.3 |
| 20260901151646 | 56 | 0 | 0.0 | 0.0 | 0.00 | 0.01 | 0.01 | 94 | 1012.4 |
| 20260901151133 | 56 | 0 | 0.0 | 0.0 | 0.00 | 0.01 | 0.01 | 94 | 1012.3 |
| 20260901150620 | 55 | 0 | 0.0 | 0.0 | 0.00 | 0.01 | 0.01 | 94 | 1012.3 |
| 20260901150107 | 56 | 0 | 0.0 | 0.0 | 0.00 | 0.01 | 0.01 | 94 | 1012.3 |
| 20260901145554 | 56 | 0 | 0.0 | 0.0 | 0.00 | 0.01 | 0.01 | 94 | 1012.3 |
| 20260901145041 | 56 | 0 | 0.0 | 0.0 | 0.00 | 0.01 | 0.01 | 94 | 1012.3 |
| 20260901144015 | 56 | 0 | 0.0 | 0.0 | 0.00 | 0.01 | 0.01 | 94 | 1012.2 |
| 20260901143502 | 56 | 0 | 0.0 | 0.0 | 0.00 | 0.01 | 0.01 | 94 | 1012.1 |
| 20260901142950 | 56 | 0 | 0.0 | 0.0 | 0.00 | 0.01 | 0.01 | 94 | 1012.1 |
| 20260901142436 | 56 | 0 | 0.0 | 0.0 | 0.00 | 0.01 | 0.01 | 94 | 1012.1 |
| 20260901141923 | 56 | 0 | 0.0 | 0.0 | 0.00 | 0.01 | 0.01 | 94 | 1012.0 |
| 20260901141410 | 55 | 0 | 0.0 | 0.0 | 0.00 | 0.01 | 0.01 | 94 | 1012.0 |
| 20260901140857 | 55 | 0 | 0.0 | 0.0 | 0.00 | 0.01 | 0.01 | 94 | 1012.0 |
| 20260901140344 | 56 | 0 | 0.0 | 0.0 | 0.00 | 0.01 | 0.01 | 94 | 1012.0 |
| 20260901135318 | 56 | 0 | 0.0 | 0.0 | 0.00 | 0.01 | 0.01 | 94 | 1011.9 |
| 20260901134805 | 55 | 0 | 0.0 | 0.0 | 0.00 | 0.01 | 0.01 | 94 | 1011.8 |
| 20260901134252 | 55 | 0 | 0.0 | 0.0 | 0.00 | 0.01 | 0.01 | 94 | 1011.7 |
| 20260901133739 | 56 | 0 | 0.0 | 0.0 | 0.00 | 0.01 | 0.01 | 94 | 1011.7 |
| 20260901132713 | 55 | 0 | 0.0 | 0.0 | 0.00 | 0.01 | 0.01 | 94 | 1011.6 |
| 20260901132200 | 55 | 0 | 0.0 | 0.0 | 0.00 | 0.01 | 0.01 | 94 | 1011.6 |
| 20260901131647 | 56 | 189 | 0.0 | 5.0 | 0.00 | 0.01 | 0.01 | 94 | 1011.6 |
| 20260901131134 | 56 | 0 | 0.0 | 5.0 | 0.00 | 0.01 | 0.01 | 94 | 1011.5 |